Погода в Федорково

Россия / Новгородская область     57°59′09″N   31°37′11″E
темп.,
°C
ветер,
м/с
пор.,
м/с
влажн.,
%
обл.,
%
осадки,
мм/ч
давл.,
гПа
погр.,
м
10 апреля, сб
сб1000:00+5ююз61460100 0.0 10141256
03:00+5ююз61464100 0.0 10141158
06:00+4ююз61466100 0.0 1014818
09:00+6ююз61363100 0.0 1014904
12:00+10ююз7135377 0.0 10141642
15:00+11ююз71353100 0.1 10131856
18:00+10юз61266100 0.6 10141596
21:00+4зюз3790100 3.4 1018632
11 апреля, вс
вс1100:00+3юз269369 0.0 1020184
03:00+3зюз239265 0.0 102275
06:000зюз11931 0.0 102410
09:00+5ю127014 0.0 1026315
12:00+9ю124882 0.0 10271183
15:00+10ю2349100 0.0 10271471
18:00+9ююв347029 0.0 1027620
21:00+7юв238889 0.0 102879
12 апреля, пн
пн1200:00+6юв2690100 0.0 1028179
03:00+6ююв229134 0.0 102940
06:00+6юв249212 0.0 102874
09:00+10ю497014 0.0 1028324
12:00+15ю57505 0.0 1027946
15:00+17ю47400 0.0 10261528
18:00+16ююв36460 0.0 1024451
21:00+11юв4126598 0.0 1024254
13 апреля, вт
вт1300:00+8юв2876100 0.0 1023181
03:00+9ююв2876100 0.0 1022264
06:00+8ююв3784100 0.0 1021199
09:00+11ю36765 0.0 1021403
12:00+15ю34540 0.0 10201116
15:00+17юз23424 0.0 10201597
18:00+17ююв23502 0.0 1019406
21:00+11юв278619 0.0 1020142
14 апреля, ср
ср1400:00+11вюв2591100 0.0 1019135
03:00+11вюв3794100 0.1 1018222
06:00+11юв3991100 0.1 1016319
09:00+11юв31094100 0.6 1016461
12:00+12ююв41087100 0.3 1015632
15:00+15ю4868100 0.5 10141119
18:00+14ююз367689 1.4 1013500
21:00+11ю1193100 2.0 101415